Regional Weather Roundup
Issued by NWS

Home | Current Version | Previous Version | Text Only | Print | Product List | Glossary On
Versions: 1 2 3 4 5 6 7 8 9 10 11 12 13 14 15 16 17 18 19 20 21 22 23 24 25 26 27 28 29 30 31 32 33 34 35 36 37 38 39 40 41 42 43 44 45 46 47 48 49 50
000
ASUS42 KFFC 271303
RWRGA
WEATHER ROUNDUP FOR GEORGIA
NATIONAL WEATHER SERVICE PEACHTREE CITY GA
900 AM EDT WED MAY 27 2015

NOTE: "FAIR" INDICATES FEW OR NO CLOUDS BELOW 12,000 FEET WITH NO
SIGNIFICANT WEATHER AND/OR OBSTRUCTIONS TO VISIBILITY.

* = USE WITH CAUTION. THE STATIONS MARKED WITH AN ASTERISK MAY NOT
REPORT WEATHER SUCH AS PRECIPITATION, FOG, OR THUNDER AND ARE NOT
QUALITY CONTROLLED BY NWS.

THE REMARK "TC" DENOTES TEMPERATURE READING IN DEGREES CELSIUS.

GAZ001>058-271400-
NORTH GEORGIA

CITY           SKY/WX    TMP DP  RH WIND       PRES   REMARKS
ATLANTA        PTSUNNY   71  65  81 CALM      30.25S
ATHENS         CLOUDY    70  65  84 CALM      30.27R
CHAMBLEE       CLOUDY    68  65  90 CALM      30.26S
PEACHTREE CITY MOSUNNY   70  65  84 CALM      30.26S
ROME           CLOUDY    68  66  93 SE3       30.23S
WEST ATLANTA   CLOUDY    69  64  84 SE3       30.25S
GAINESVILLE    CLOUDY    66  64  93 CALM      30.28S
CARTERSVILLE   CLOUDY    67  65  93 CALM      30.26R


CITY           SKY/WX    TMP DP  RH WIND       PRES   REMARKS
DALTON*        CLOUDY    66  66 100 CALM      30.24S
LAWRENCEVILLE* CLOUDY    66  61  82 CALM      30.25S FOG
MARIETTA       CLOUDY    67  66  97 E3        30.26R FOG
KENNESAW*      CLOUDY    66  64  94 CALM      30.27R FOG
BLAIRSVILLE*     N/A     65  57  75 CALM      30.29R
$$

GAZ059>098-102>109-271400-
CENTRAL GEORGIA

CITY           SKY/WX    TMP DP  RH WIND       PRES   REMARKS
AUGUSTA-BUSH   CLOUDY    72  68  87 CALM      30.26R
AUGUSTA-DANIEL CLOUDY    72  67  84 CALM      30.28R
COLUMBUS       MOSUNNY   69  67  93 E3        30.23R
MACON          CLOUDY    68  67  96 CALM      30.26R FOG
ROBINS AFB     CLOUDY    69  69  99 VRB1      30.25R


CITY           SKY/WX    TMP DP  RH WIND       PRES   REMARKS
LAGRANGE*      CLOUDY    73  72  98 NE3       30.24S
SYLVANIA*      CLOUDY    74  73  94 CALM      30.28R
MILLEDGEVILLE* CLOUDY    70  70 100 CALM      30.27R
$$

GAZ099>101-110>166-271400-
SOUTH GEORGIA

CITY           SKY/WX    TMP DP  RH WIND       PRES   REMARKS
SAVANNAH       PTSUNNY   79  68  69 SE7       30.26R
VALDOSTA       LGT RAIN  76  71  85 SE3       30.23R
ALMA           MOSUNNY   75  71  87 CALM      30.25R
FT STEWART     MOSUNNY   78  70  76 SE5       30.24R
ALBANY         CLOUDY    72  70  93 NE6       30.25R
HUNTER AFB     MOSUNNY   79  70  73 S6        30.24R
MOODY AFB      PTSUNNY   75  70  84 SE5       30.23R
BRUNSWICK      PTSUNNY   79  66  65 S7        30.26R


CITY           SKY/WX    TMP DP  RH WIND       PRES   REMARKS
BAINBRIDGE*    CLOUDY    73  72  94 E3        30.23R
MOULTRIE*      CLOUDY    72  70  94 E5        30.23S
VIDALIA*       CLOUDY    72  70  94 CALM      30.27R
WAYCROSS*      MOSUNNY   76  73  90 CALM      30.24R
DOUGLAS*       CLOUDY    77  72  83 CALM      30.26R
$$



USA.gov is the U.S. government's official web portal to all federal, state and local government web resources and services.